�v������,,���ԉ��x,�����t���O,���Ԏ��x,�����t���O,�q�������x,�����t���O,���ʎ����x,�����t���O,�{�C���[���x,�����t���O,30��,����,�����t���O
2002/11/1,0:00:00,20.1,0,45.8,0,20,0,19.5,0,,0,2002/11/1 0:00,10.5,0
2002/11/1,0:10:00,20,0,45.7,0,20,0,19.5,0,,0,2002/11/1 0:30,10.6,0
2002/11/1,0:20:00,19.9,0,45.6,0,19.9,0,19.4,0,,0,2002/11/1 1:00,10.9,0
2002/11/1,0:30:00,19.8,0,45.6,0,19.9,0,19.4,0,,0,2002/11/1 1:30,11.1,0
2002/11/1,0:40:00,19.8,0,45.5,0,19.8,0,19.3,0,,0,2002/11/1 2:00,14.6,0
2002/11/1,0:50:00,19.7,0,45.5,0,19.8,0,19.3,0,,0,2002/11/1 2:30,14.5,0
2002/11/1,1:00:00,19.6,0,45.4,0,19.8,0,19.3,0,,0,2002/11/1 3:00,15.4,0
2002/11/1,1:10:00,19.6,0,45.3,0,19.8,0,19.3,0,,0,2002/11/1 3:30,14.5,0
2002/11/1,1:20:00,19.5,0,45.3,0,19.8,0,19.3,0,,0,2002/11/1 4:00,14.5,0
2002/11/1,1:30:00,19.5,0,45.3,0,19.7,0,19.2,0,,0,2002/11/1 4:30,14.6,0
2002/11/1,1:40:00,19.5,0,45.3,0,19.7,0,19.2,0,,0,2002/11/1 5:00,14.6,0
2002/11/1,1:50:00,19.4,0,45.3,0,19.7,0,19.2,0,,0,2002/11/1 5:30,14.8,0
2002/11/1,2:00:00,19.4,0,45.3,0,19.6,0,19.1,0,,0,2002/11/1 6:00,14.8,0
2002/11/1,2:10:00,19.3,0,45.3,0,19.6,0,19.1,0,,0,2002/11/1 6:30,15,0
2002/11/1,2:20:00,19.3,0,45.3,0,19.6,0,19.1,0,,0,2002/11/1 7:00,15.6,0
2002/11/1,2:30:00,19.3,0,45.4,0,19.5,0,19,0,,0,2002/11/1 7:30,11.3,0
2002/11/1,2:40:00,19.2,0,45.4,0,19.5,0,19,0,,0,2002/11/1 8:00,10.8,0
2002/11/1,2:50:00,19.2,0,45.4,0,19.5,0,19,0,,0,2002/11/1 8:30,10.9,0
2002/11/1,3:00:00,19.2,0,45.4,0,19.5,0,19,0,,0,2002/11/1 9:00,11,0
2002/11/1,3:10:00,19.2,0,45.6,0,19.5,0,19,0,,0,2002/11/1 9:30,11.2,0
2002/11/1,3:20:00,19.1,0,45.7,0,19.4,0,18.9,0,,0,2002/11/1 10:00,12.4,0
2002/11/1,3:30:00,19.1,0,45.7,0,19.4,0,18.9,0,,0,2002/11/1 10:30,12.5,0
2002/11/1,3:40:00,19.1,0,45.8,0,19.4,0,18.9,0,,0,2002/11/1 11:00,13,0
2002/11/1,3:50:00,19.1,0,46,0,19.4,0,18.9,0,,0,2002/11/1 11:30,13.1,0
2002/11/1,4:00:00,19.1,0,46,0,19.4,0,18.9,0,,0,2002/11/1 12:00,13.1,0
2002/11/1,4:10:00,19.1,0,46.1,0,19.4,0,18.9,0,,0,2002/11/1 12:30,13.2,0
2002/11/1,4:20:00,19.1,0,46.1,0,19.3,0,18.8,0,,0,2002/11/1 13:00,13.4,0
2002/11/1,4:30:00,19.1,0,46.2,0,19.4,0,18.9,0,,0,2002/11/1 13:30,13.4,0
2002/11/1,4:40:00,19.1,0,46.2,0,19.3,0,18.8,0,,0,2002/11/1 14:00,13.5,0
2002/11/1,4:50:00,19.1,0,46.2,0,19.3,0,18.8,0,,0,2002/11/1 14:30,13.6,0
2002/11/1,5:00:00,19,0,46.3,0,19.3,0,18.8,0,,0,2002/11/1 15:00,12.6,0
2002/11/1,5:10:00,19,0,46.3,0,19.3,0,18.8,0,,0,2002/11/1 15:30,12.7,0
2002/11/1,5:20:00,19,0,46.4,0,19.3,0,18.8,0,,0,2002/11/1 16:00,12.9,0
2002/11/1,5:30:00,19,0,46.3,0,19.3,0,18.8,0,,0,2002/11/1 16:30,11.7,0
2002/11/1,5:40:00,18.9,0,46.4,0,19.2,0,18.7,0,,0,2002/11/1 17:00,11.6,0
2002/11/1,5:50:00,18.9,0,46.4,0,19.2,0,18.7,0,,0,2002/11/1 17:30,11.8,0
2002/11/1,6:00:00,18.9,0,46.5,0,19.2,0,18.7,0,,0,2002/11/1 18:00,11.9,0
2002/11/1,6:10:00,18.9,0,46.5,0,19.2,0,18.7,0,,0,2002/11/1 18:30,11.5,0
2002/11/1,6:20:00,18.8,0,46.6,0,19.2,0,18.7,0,,0,2002/11/1 19:00,11.6,0
2002/11/1,6:30:00,18.8,0,46.6,0,19.2,0,18.7,0,,0,2002/11/1 19:30,11.8,0
2002/11/1,6:40:00,18.8,0,46.7,0,19.2,0,18.7,0,,0,2002/11/1 20:00,12,0
2002/11/1,6:50:00,18.8,0,46.8,0,19.2,0,18.7,0,,0,2002/11/1 20:30,12,0
2002/11/1,7:00:00,18.8,0,47.1,0,19.2,0,18.7,0,,0,2002/11/1 21:00,14.2,0
2002/11/1,7:10:00,18.8,0,47.4,0,19.1,0,18.6,0,,0,2002/11/1 21:30,12.7,0
2002/11/1,7:20:00,18.9,0,48.3,0,19.1,0,18.6,0,,0,2002/11/1 22:00,12.8,0
2002/11/1,7:30:00,19,0,49.2,0,19.2,0,18.7,0,,0,2002/11/1 22:30,10.3,0
2002/11/1,7:40:00,19.4,0,50.1,0,19.4,0,18.9,0,,0,2002/11/1 23:00,9.3,0
2002/11/1,7:50:00,19.5,0,50.1,0,19.5,0,19,0,,0,2002/11/1 23:30,9.7,0
2002/11/1,8:00:00,19.7,0,50,0,19.6,0,19.1,0,,0,2002/11/2 0:00,9.9,0
2002/11/1,8:10:00,19.7,0,50.5,0,19.6,0,19.1,0,,0,2002/11/2 0:30,12.5,0
2002/11/1,8:20:00,19.8,0,50.3,0,19.6,0,19.1,0,,0,2002/11/2 1:00,12.6,0
2002/11/1,8:30:00,19.8,0,50.2,0,19.7,0,19.2,0,,0,2002/11/2 1:30,12.7,0
2002/11/1,8:40:00,19.8,0,50.1,0,19.7,0,19.2,0,,0,2002/11/2 2:00,12.8,0
2002/11/1,8:50:00,19.8,0,50.1,0,19.8,0,19.3,0,,0,2002/11/2 2:30,12.9,0
2002/11/1,9:00:00,19.8,0,49.9,0,19.8,0,19.3,0,,0,2002/11/2 3:00,13.1,0
2002/11/1,9:10:00,19.7,0,49.8,0,19.8,0,19.3,0,,0,2002/11/2 3:30,15.2,0
2002/11/1,9:20:00,19.7,0,49.9,0,19.8,0,19.3,0,,0,2002/11/2 4:00,15.2,0
2002/11/1,9:30:00,19.7,0,50.1,0,19.8,0,19.3,0,,0,2002/11/2 4:30,15.2,0
2002/11/1,9:40:00,19.7,0,50.1,0,19.8,0,19.3,0,,0,2002/11/2 5:00,15.2,0
2002/11/1,9:50:00,19.6,0,50,0,19.8,0,19.3,0,,0,2002/11/2 5:30,15.3,0
2002/11/1,10:00:00,19.6,0,50.1,0,19.8,0,19.3,0,,0,2002/11/2 6:00,15.4,0
2002/11/1,10:10:00,19.6,0,50.3,0,19.8,0,19.3,0,,0,2002/11/2 6:30,15.4,0
2002/11/1,10:20:00,19.6,0,50.6,0,19.8,0,19.3,0,,0,2002/11/2 7:00,15.9,0
2002/11/1,10:30:00,19.6,0,50.7,0,19.8,0,19.3,0,,0,2002/11/2 7:30,15.8,0
2002/11/1,10:40:00,19.6,0,50.7,0,19.8,0,19.3,0,,0,2002/11/2 8:00,16,0
2002/11/1,10:50:00,19.6,0,50.8,0,19.8,0,19.3,0,,0,2002/11/2 8:30,9.7,0
2002/11/1,11:00:00,19.6,0,51,0,19.8,0,19.3,0,,0,2002/11/2 9:00,10.6,0
2002/11/1,11:10:00,19.6,0,51.1,0,19.8,0,19.3,0,,0,2002/11/2 9:30,10.8,0
2002/11/1,11:20:00,19.5,0,51.2,0,19.7,0,19.2,0,,0,2002/11/2 10:00,9.4,0
2002/11/1,11:30:00,19.5,0,51,0,19.7,0,19.2,0,,0,2002/11/2 10:30,11,0
2002/11/1,11:40:00,19.5,0,50.8,0,19.7,0,19.2,0,,0,2002/11/2 11:00,10.1,0
2002/11/1,11:50:00,19.5,0,50.9,0,19.6,0,19.1,0,,0,2002/11/2 11:30,10.2,0
2002/11/1,12:00:00,19.5,0,50.8,0,19.6,0,19.1,0,,0,2002/11/2 12:00,10.4,0
2002/11/1,12:10:00,19.4,0,50.8,0,19.6,0,19.1,0,,0,2002/11/2 12:30,10.7,0
2002/11/1,12:20:00,19.4,0,50.9,0,19.5,0,19,0,,0,2002/11/2 13:00,10.8,0
2002/11/1,12:30:00,19.4,0,50.9,0,19.5,0,19,0,,0,2002/11/2 13:30,11,0
2002/11/1,12:40:00,19.4,0,51,0,19.5,0,19,0,,0,2002/11/2 14:00,14.2,0
2002/11/1,12:50:00,19.5,0,51.1,0,19.5,0,19,0,,0,2002/11/2 14:30,14.2,0
2002/11/1,13:00:00,19.6,0,51,0,19.6,0,19.1,0,,0,2002/11/2 15:00,14.2,0
2002/11/1,13:10:00,19.6,0,50.9,0,19.6,0,19.1,0,,0,2002/11/2 15:30,14.3,0
2002/11/1,13:20:00,19.7,0,51,0,19.6,0,19.1,0,,0,2002/11/2 16:00,14.4,0
2002/11/1,13:30:00,19.7,0,51,0,19.6,0,19.1,0,,0,2002/11/2 16:30,14.3,0
2002/11/1,13:40:00,19.7,0,51,0,19.6,0,19.1,0,,0,2002/11/2 17:00,14.4,0
2002/11/1,13:50:00,19.8,0,51,0,19.6,0,19.1,0,,0,2002/11/2 17:30,11.2,0
2002/11/1,14:00:00,19.8,0,51.1,0,19.6,0,19.1,0,,0,2002/11/2 18:00,11.4,0
2002/11/1,14:10:00,19.8,0,51,0,19.6,0,19.1,0,,0,2002/11/2 18:30,11.5,0
2002/11/1,14:20:00,19.8,0,51,0,19.6,0,19.1,0,,0,2002/11/2 19:00,9.8,0
2002/11/1,14:30:00,19.8,0,51.1,0,19.6,0,19.1,0,,0,2002/11/2 19:30,9.9,0
2002/11/1,14:40:00,19.8,0,51.1,0,19.6,0,19.1,0,,0,2002/11/2 20:00,10.2,0
2002/11/1,14:50:00,19.9,0,51,0,19.6,0,19.1,0,,0,2002/11/2 20:30,11.2,0
2002/11/1,15:00:00,20,0,50.9,0,19.6,0,19.1,0,,0,2002/11/2 21:00,9.2,0
2002/11/1,15:10:00,20.1,0,50.7,0,19.7,0,19.2,0,,0,2002/11/2 21:30,10,0
2002/11/1,15:20:00,20.2,0,51.3,0,19.7,0,19.2,0,,0,2002/11/2 22:00,10.2,0
2002/11/1,15:30:00,20.3,0,52,0,19.7,0,19.2,0,,0,2002/11/2 22:30,11.7,0
2002/11/1,15:40:00,20.3,0,52,0,19.7,0,19.2,0,,0,2002/11/2 23:00,9.2,0
2002/11/1,15:50:00,20.4,0,52.9,0,19.7,0,19.2,0,,0,2002/11/2 23:30,9.4,0
2002/11/1,16:00:00,20.5,0,54.8,0,19.7,0,19.2,0,,0,2002/11/3 0:00,9.6,0
2002/11/1,16:10:00,20.4,0,54.4,0,19.7,0,19.2,0,,0,2002/11/3 0:30,9.8,0
2002/11/1,16:20:00,20.4,0,53.8,0,19.7,0,19.2,0,,0,2002/11/3 1:00,12.6,0
2002/11/1,16:30:00,20.2,0,53.1,0,19.8,0,19.3,0,,0,2002/11/3 1:30,12,0
2002/11/1,16:40:00,20.2,0,53,0,19.8,0,19.3,0,,0,2002/11/3 2:00,12.1,0
2002/11/1,16:50:00,20.1,0,53,0,19.8,0,19.3,0,,0,2002/11/3 2:30,12.3,0
2002/11/1,17:00:00,20.1,0,52.8,0,19.9,0,19.4,0,,0,2002/11/3 3:00,12.4,0
2002/11/1,17:10:00,20,0,52.7,0,20,0,19.5,0,,0,2002/11/3 3:30,12.5,0
2002/11/1,17:20:00,20,0,53,0,20,0,19.5,0,,0,2002/11/3 4:00,12.6,0
2002/11/1,17:30:00,20.1,0,53,0,19.9,0,19.4,0,,0,2002/11/3 4:30,14.9,0
2002/11/1,17:40:00,20,0,52.9,0,19.9,0,19.4,0,,0,2002/11/3 5:00,15,0
2002/11/1,17:50:00,20,0,52.8,0,19.9,0,19.4,0,,0,2002/11/3 5:30,15,0
2002/11/1,18:00:00,20,0,52.7,0,19.9,0,19.4,0,,0,2002/11/3 6:00,15,0
2002/11/1,18:10:00,20,0,52.7,0,20,0,19.5,0,,0,2002/11/3 6:30,15.1,0
2002/11/1,18:20:00,20,0,52.6,0,20.1,0,19.6,0,,0,2002/11/3 7:00,15.2,0
2002/11/1,18:30:00,20,0,52.6,0,20.1,0,19.6,0,,0,2002/11/3 7:30,15.2,0
2002/11/1,18:40:00,20,0,52.8,0,20.1,0,19.6,0,,0,2002/11/3 8:00,10.8,0
2002/11/1,18:50:00,20,0,52.9,0,20.1,0,19.6,0,,0,2002/11/3 8:30,11,0
2002/11/1,19:00:00,20,0,52.9,0,20.1,0,19.6,0,,0,2002/11/3 9:00,10.9,0
2002/11/1,19:10:00,20,0,52.9,0,20.1,0,19.6,0,,0,2002/11/3 9:30,11.1,0
2002/11/1,19:20:00,20,0,52.8,0,20,0,19.5,0,,0,2002/11/3 10:00,10.2,0
2002/11/1,19:30:00,20,0,52.7,0,20,0,19.5,0,,0,2002/11/3 10:30,9.3,0
2002/11/1,19:40:00,19.9,0,52.6,0,20,0,19.5,0,,0,2002/11/3 11:00,10.1,0
2002/11/1,19:50:00,19.9,0,52.6,0,20,0,19.5,0,,0,2002/11/3 11:30,9.8,0
2002/11/1,20:00:00,19.9,0,52.5,0,19.9,0,19.4,0,,0,2002/11/3 12:00,9.9,0
2002/11/1,20:10:00,19.9,0,52.3,0,19.9,0,19.4,0,,0,2002/11/3 12:30,9.7,0
2002/11/1,20:20:00,19.8,0,52.1,0,19.9,0,19.4,0,,0,2002/11/3 13:00,10,0
2002/11/1,20:30:00,19.8,0,52,0,19.8,0,19.3,0,,0,2002/11/3 13:30,9.2,0
2002/11/1,20:40:00,19.8,0,51.9,0,19.8,0,19.3,0,,0,2002/11/3 14:00,9.4,0
2002/11/1,20:50:00,20,0,52,0,19.9,0,19.4,0,,0,2002/11/3 14:30,9.7,0
2002/11/1,21:00:00,20.4,0,52.1,0,20.1,0,19.6,0,,0,2002/11/3 15:00,9.9,0
2002/11/1,21:10:00,20.7,0,52.2,0,20.3,0,19.8,0,,0,2002/11/3 15:30,10.1,0
2002/11/1,21:20:00,21,0,52.5,0,20.5,0,20,0,,0,2002/11/3 16:00,10.3,0
2002/11/1,21:30:00,21.2,0,52.4,0,20.7,0,20.2,0,,0,2002/11/3 16:30,10.5,0
2002/11/1,21:40:00,21.5,0,52.2,0,20.8,0,20.3,0,,0,2002/11/3 17:00,10.6,0
2002/11/1,21:50:00,21.6,0,52,0,20.9,0,20.4,0,,0,2002/11/3 17:30,10.8,0
2002/11/1,22:00:00,21.6,0,51.3,0,21,0,20.5,0,,0,2002/11/3 18:00,11,0
2002/11/1,22:10:00,21.6,0,51.2,0,21,0,20.5,0,,0,2002/11/3 18:30,11.2,0
2002/11/1,22:20:00,21.5,0,50.9,0,21,0,20.5,0,,0,2002/11/3 19:00,11.4,0
2002/11/1,22:30:00,21.4,0,50.6,0,20.9,0,20.4,0,,0,2002/11/3 19:30,9.7,0
2002/11/1,22:40:00,21.4,0,50.4,0,20.8,0,20.3,0,,0,2002/11/3 20:00,9.7,0
2002/11/1,22:50:00,21.3,0,50.1,0,20.7,0,20.2,0,,0,2002/11/3 20:30,9.8,0
2002/11/1,23:00:00,21.3,0,50,0,20.7,0,20.2,0,,0,2002/11/3 21:00,10.1,0
2002/11/1,23:10:00,21.2,0,50.1,0,20.7,0,20.2,0,,0,2002/11/3 21:30,11.4,0
2002/11/1,23:20:00,21.1,0,50.1,0,20.7,0,20.2,0,,0,2002/11/3 22:00,11.4,0
2002/11/1,23:30:00,21,0,50.1,0,20.6,0,20.1,0,,0,2002/11/3 22:30,10.5,0
2002/11/1,23:40:00,21,0,50.2,0,20.6,0,20.1,0,,0,2002/11/3 23:00,8.8,0
2002/11/1,23:50:00,20.9,0,50.3,0,20.6,0,20.1,0,,0,2002/11/3 23:30,9,0
2002/11/2,0:00:00,20.8,0,50.5,0,20.5,0,20,0,,0,2002/11/4 0:00,9.2,0
2002/11/2,0:10:00,20.8,0,50.5,0,20.5,0,20,0,,0,2002/11/4 0:30,9.4,0
2002/11/2,0:20:00,20.7,0,50.5,0,20.5,0,20,0,,0,2002/11/4 1:00,9.7,0
2002/11/2,0:30:00,20.6,0,50.4,0,20.4,0,19.9,0,,0,2002/11/4 1:30,9.9,0
2002/11/2,0:40:00,20.5,0,50.4,0,20.4,0,19.9,0,,0,2002/11/4 2:00,10.1,0
2002/11/2,0:50:00,20.5,0,50.5,0,20.3,0,19.8,0,,0,2002/11/4 2:30,10.3,0
2002/11/2,1:00:00,20.4,0,50.6,0,20.3,0,19.8,0,,0,2002/11/4 3:00,10.5,0
2002/11/2,1:10:00,20.3,0,50.7,0,20.2,0,19.7,0,,0,2002/11/4 3:30,14.4,0
2002/11/2,1:20:00,20.2,0,50.7,0,20.2,0,19.7,0,,0,2002/11/4 4:00,14.5,0
2002/11/2,1:30:00,20.2,0,50.7,0,20.1,0,19.6,0,,0,2002/11/4 4:30,14.5,0
2002/11/2,1:40:00,20.1,0,50.8,0,20.1,0,19.6,0,,0,2002/11/4 5:00,14.6,0
2002/11/2,1:50:00,20,0,51,0,20.1,0,19.6,0,,0,2002/11/4 5:30,14.6,0
2002/11/2,2:00:00,20,0,51,0,20,0,19.5,0,,0,2002/11/4 6:00,14.8,0
2002/11/2,2:10:00,19.9,0,51,0,20,0,19.5,0,,0,2002/11/4 6:30,14.8,0
2002/11/2,2:20:00,19.9,0,50.9,0,19.9,0,19.4,0,,0,2002/11/4 7:00,11.9,0
2002/11/2,2:30:00,19.8,0,50.9,0,19.9,0,19.4,0,,0,2002/11/4 7:30,10.8,0
2002/11/2,2:40:00,19.8,0,51,0,19.9,0,19.4,0,,0,2002/11/4 8:00,10.9,0
2002/11/2,2:50:00,19.7,0,51.1,0,19.8,0,19.3,0,,0,2002/11/4 8:30,11,0
2002/11/2,3:00:00,19.7,0,51.2,0,19.8,0,19.3,0,,0,2002/11/4 9:00,9.5,0
2002/11/2,3:10:00,19.6,0,51.1,0,19.8,0,19.3,0,,0,2002/11/4 9:30,9.6,0
2002/11/2,3:20:00,19.6,0,51,0,19.8,0,19.3,0,,0,2002/11/4 10:00,8.3,0
2002/11/2,3:30:00,19.6,0,50.8,0,19.7,0,19.2,0,,0,2002/11/4 10:30,8.1,0
2002/11/2,3:40:00,19.5,0,50.8,0,19.7,0,19.2,0,,0,2002/11/4 11:00,8.4,0
2002/11/2,3:50:00,19.5,0,50.7,0,19.7,0,19.2,0,,0,2002/11/4 11:30,8.6,0
2002/11/2,4:00:00,19.4,0,50.6,0,19.6,0,19.1,0,,0,2002/11/4 12:00,8.9,0
2002/11/2,4:10:00,19.4,0,50.5,0,19.6,0,19.1,0,,0,2002/11/4 12:30,9.1,0
2002/11/2,4:20:00,19.4,0,50.5,0,19.6,0,19.1,0,,0,2002/11/4 13:00,9.4,0
2002/11/2,4:30:00,19.3,0,50.5,0,19.5,0,19,0,,0,2002/11/4 13:30,9.6,0
2002/11/2,4:40:00,19.3,0,50.5,0,19.5,0,19,0,,0,2002/11/4 14:00,9.9,0
2002/11/2,4:50:00,19.3,0,50.4,0,19.5,0,19,0,,0,2002/11/4 14:30,10.1,0
2002/11/2,5:00:00,19.2,0,50.4,0,19.4,0,18.9,0,,0,2002/11/4 15:00,10.3,0
2002/11/2,5:10:00,19.2,0,50.4,0,19.4,0,18.9,0,,0,2002/11/4 15:30,10.6,0
2002/11/2,5:20:00,19.2,0,50.4,0,19.4,0,18.9,0,,0,2002/11/4 16:00,10.8,0
2002/11/2,5:30:00,19.1,0,50.3,0,19.4,0,18.9,0,,0,2002/11/4 16:30,11,0
2002/11/2,5:40:00,19.1,0,50.3,0,19.3,0,18.8,0,,0,2002/11/4 17:00,11.2,0
2002/11/2,5:50:00,19.1,0,50.3,0,19.3,0,18.8,0,,0,2002/11/4 17:30,11.5,0
2002/11/2,6:00:00,19.1,0,50.3,0,19.3,0,18.8,0,,0,2002/11/4 18:00,11.7,0
2002/11/2,6:10:00,19,0,50.4,0,19.2,0,18.7,0,,0,2002/11/4 18:30,11.9,0
2002/11/2,6:20:00,19,0,50.3,0,19.2,0,18.7,0,,0,2002/11/4 19:00,12.1,0
2002/11/2,6:30:00,19,0,50.3,0,19.2,0,18.7,0,,0,2002/11/4 19:30,9.9,0
2002/11/2,6:40:00,19,0,50.5,0,19.2,0,18.7,0,,0,2002/11/4 20:00,9.8,0
2002/11/2,6:50:00,19.2,0,50.6,0,19.3,0,18.8,0,,0,2002/11/4 20:30,8.9,0
2002/11/2,7:00:00,19.5,0,50.3,0,19.4,0,18.9,0,,0,2002/11/4 21:00,10.6,0
2002/11/2,7:10:00,19.7,0,50,0,19.6,0,19.1,0,,0,2002/11/4 21:30,10.7,0
2002/11/2,7:20:00,19.9,0,49.8,0,19.8,0,19.3,0,,0,2002/11/4 22:00,10.9,0
2002/11/2,7:30:00,20,0,49.6,0,20.1,0,19.6,0,,0,2002/11/4 22:30,11,0
2002/11/2,7:40:00,20,0,49.6,0,20.3,0,19.8,0,,0,2002/11/4 23:00,9.7,0
2002/11/2,7:50:00,20.1,0,49.5,0,20.6,0,20.1,0,,0,2002/11/4 23:30,8.9,0
2002/11/2,8:00:00,20.1,0,49.5,0,20.8,0,20.3,0,,0,2002/11/5 0:00,9.1,0
2002/11/2,8:10:00,20,0,49.5,0,21,0,20.5,0,,0,2002/11/5 0:30,12.2,0
2002/11/2,8:20:00,20.1,0,49.4,0,21.1,0,20.6,0,,0,2002/11/5 1:00,11.4,0
2002/11/2,8:30:00,20.3,0,49.5,0,21.1,0,20.6,0,,0,2002/11/5 1:30,11.7,0
2002/11/2,8:40:00,20.5,0,49.7,0,21.1,0,20.6,0,,0,2002/11/5 2:00,11.9,0
2002/11/2,8:50:00,20.8,0,49.9,0,21.1,0,20.6,0,,0,2002/11/5 2:30,12,0
2002/11/2,9:00:00,21,0,49.8,0,21.1,0,20.6,0,,0,2002/11/5 3:00,12.1,0
2002/11/2,9:10:00,21.2,0,49.7,0,21.2,0,20.7,0,,0,2002/11/5 3:30,13.5,0
2002/11/2,9:20:00,21.4,0,49.7,0,21.2,0,20.7,0,,0,2002/11/5 4:00,13.6,0
2002/11/2,9:30:00,21.5,0,49.2,0,21.3,0,20.8,0,,0,2002/11/5 4:30,13.7,0
2002/11/2,9:40:00,21.7,0,49.1,0,21.3,0,20.8,0,,0,2002/11/5 5:00,13.7,0
2002/11/2,9:50:00,21.8,0,49.2,0,21.7,0,21.2,0,,0,2002/11/5 5:30,13.9,0
2002/11/2,10:00:00,21.9,0,49.3,0,21.9,0,21.4,0,,0,2002/11/5 6:00,14.3,0
2002/11/2,10:10:00,21.9,0,48.9,0,22,0,21.5,0,,0,2002/11/5 6:30,14.6,0
2002/11/2,10:20:00,21.7,0,49.3,0,21.9,0,21.4,0,,0,2002/11/5 7:00,10.1,0
2002/11/2,10:30:00,21.8,0,49.5,0,21.9,0,21.4,0,,0,2002/11/5 7:30,8.3,0
2002/11/2,10:40:00,21.7,0,49.3,0,21.8,0,21.3,0,,0,2002/11/5 8:00,8.5,0
2002/11/2,10:50:00,21.8,0,49.8,0,21.7,0,21.2,0,,0,2002/11/5 8:30,8.8,0
2002/11/2,11:00:00,21.9,0,49,0,21.7,0,21.2,0,,0,2002/11/5 9:00,8.9,0
2002/11/2,11:10:00,22,0,48.6,0,21.7,0,21.2,0,,0,2002/11/5 9:30,9.2,0
2002/11/2,11:20:00,22,0,48.2,0,21.6,0,21.1,0,,0,2002/11/5 10:00,9.6,0
2002/11/2,11:30:00,22.1,0,47.7,0,21.6,0,21.1,0,,0,2002/11/5 10:30,10.4,0
2002/11/2,11:40:00,22,0,47.4,0,21.5,0,21,0,,0,2002/11/5 11:00,10.5,0
2002/11/2,11:50:00,22,0,47.1,0,21.4,0,20.9,0,,0,2002/11/5 11:30,10.7,0
2002/11/2,12:00:00,21.9,0,46.9,0,21.4,0,20.9,0,,0,2002/11/5 12:00,10.9,0
2002/11/2,12:10:00,21.8,0,46.7,0,21.4,0,20.9,0,,0,2002/11/5 12:30,11,0
2002/11/2,12:20:00,21.8,0,46.6,0,21.4,0,20.9,0,,0,2002/11/5 13:00,11,0
2002/11/2,12:30:00,21.7,0,46.5,0,21.3,0,20.8,0,,0,2002/11/5 13:30,11,0
2002/11/2,12:40:00,21.7,0,46.3,0,21.3,0,20.8,0,,0,2002/11/5 14:00,11.3,0
2002/11/2,12:50:00,21.6,0,46.3,0,21.2,0,20.7,0,,0,2002/11/5 14:30,11.3,0
2002/11/2,13:00:00,21.5,0,46.2,0,21.2,0,20.7,0,,0,2002/11/5 15:00,11.5,0
2002/11/2,13:10:00,21.5,0,46.1,0,21.1,0,20.6,0,,0,2002/11/5 15:30,11.7,0
2002/11/2,13:20:00,21.4,0,46.1,0,21,0,20.5,0,,0,2002/11/5 16:00,11.9,0
2002/11/2,13:30:00,21.5,0,46.1,0,21,0,20.5,0,,0,2002/11/5 16:30,10.3,0
2002/11/2,13:40:00,21.5,0,45.9,0,21,0,20.5,0,,0,2002/11/5 17:00,10.4,0
2002/11/2,13:50:00,21.5,0,45.8,0,21,0,20.5,0,,0,2002/11/5 17:30,12.5,0
2002/11/2,14:00:00,21.4,0,45.9,0,20.9,0,20.4,0,,0,2002/11/5 18:00,11.7,0
2002/11/2,14:10:00,21.4,0,45.8,0,20.9,0,20.4,0,,0,2002/11/5 18:30,11.9,0
2002/11/2,14:20:00,21.2,0,45.7,0,20.8,0,20.3,0,,0,2002/11/5 19:00,11.9,0
2002/11/2,14:30:00,21.2,0,45.8,0,20.8,0,20.3,0,,0,2002/11/5 19:30,12,0
2002/11/2,14:40:00,21.2,0,45.6,0,20.8,0,20.3,0,,0,2002/11/5 20:00,12.2,0
2002/11/2,14:50:00,21.1,0,45.6,0,20.7,0,20.2,0,,0,2002/11/5 20:30,9.9,0
2002/11/2,15:00:00,21,0,45.7,0,20.7,0,20.2,0,,0,2002/11/5 21:00,9.2,0
2002/11/2,15:10:00,20.9,0,45.8,0,20.6,0,20.1,0,,0,2002/11/5 21:30,9.4,0
2002/11/2,15:20:00,20.8,0,46,0,20.5,0,20,0,,0,2002/11/5 22:00,9.7,0
2002/11/2,15:30:00,20.7,0,46,0,20.5,0,20,0,,0,2002/11/5 22:30,9.1,0
2002/11/2,15:40:00,20.6,0,45.9,0,20.4,0,19.9,0,,0,2002/11/5 23:00,10.2,0
2002/11/2,15:50:00,20.5,0,45.9,0,20.3,0,19.8,0,,0,2002/11/5 23:30,10.3,0
2002/11/2,16:00:00,20.4,0,46,0,20.2,0,19.7,0,,0,2002/11/6 0:00,10.5,0
2002/11/2,16:10:00,20.3,0,45.9,0,20.2,0,19.7,0,,0,2002/11/6 0:30,10.6,0
2002/11/2,16:20:00,20.2,0,45.8,0,20.1,0,19.6,0,,0,2002/11/6 1:00,10.8,0
2002/11/2,16:30:00,20.1,0,46.3,0,20,0,19.5,0,,0,2002/11/6 1:30,11,0
2002/11/2,16:40:00,20,0,46.3,0,19.9,0,19.4,0,,0,2002/11/6 2:00,14,0
2002/11/2,16:50:00,19.9,0,46.3,0,19.8,0,19.3,0,,0,2002/11/6 2:30,14,0
2002/11/2,17:00:00,19.8,0,46.2,0,19.7,0,19.2,0,,0,2002/11/6 3:00,14.1,0
2002/11/2,17:10:00,19.7,0,46.3,0,19.6,0,19.1,0,,0,2002/11/6 3:30,14.1,0
2002/11/2,17:20:00,19.6,0,46.4,0,19.5,0,19,0,,0,2002/11/6 4:00,14.2,0
2002/11/2,17:30:00,19.6,0,46.4,0,19.5,0,19,0,,0,2002/11/6 4:30,14.3,0
2002/11/2,17:40:00,19.5,0,46.4,0,19.5,0,19,0,,0,2002/11/6 5:00,14.3,0
2002/11/2,17:50:00,19.5,0,46.7,0,19.5,0,19,0,,0,2002/11/6 5:30,14.4,0
2002/11/2,18:00:00,19.5,0,47,0,19.4,0,18.9,0,,0,2002/11/6 6:00,15.1,0
2002/11/2,18:10:00,19.4,0,47,0,19.4,0,18.9,0,,0,2002/11/6 6:30,11.5,0
2002/11/2,18:20:00,19.4,0,47,0,19.4,0,18.9,0,,0,2002/11/6 7:00,9.7,0
2002/11/2,18:30:00,19.4,0,47,0,19.4,0,18.9,0,,0,2002/11/6 7:30,9.9,0
2002/11/2,18:40:00,19.4,0,47.6,0,19.4,0,18.9,0,,0,2002/11/6 8:00,10.1,0
2002/11/2,18:50:00,19.4,0,48.2,0,19.4,0,18.9,0,,0,2002/11/6 8:30,9.7,0
2002/11/2,19:00:00,19.5,0,48.6,0,19.4,0,18.9,0,,0,2002/11/6 9:00,9.9,0
2002/11/2,19:10:00,19.6,0,50.5,0,19.4,0,18.9,0,,0,2002/11/6 9:30,9.9,0
2002/11/2,19:20:00,19.7,0,51.7,0,19.4,0,18.9,0,,0,2002/11/6 10:00,10,0
2002/11/2,19:30:00,19.8,0,52.3,0,19.4,0,18.9,0,,0,2002/11/6 10:30,10.2,0
2002/11/2,19:40:00,19.8,0,52.4,0,19.4,0,18.9,0,,0,2002/11/6 11:00,11.3,0
2002/11/2,19:50:00,19.8,0,52.2,0,19.4,0,18.9,0,,0,2002/11/6 11:30,11.4,0
2002/11/2,20:00:00,19.7,0,52,0,19.4,0,18.9,0,,0,2002/11/6 12:00,10.4,0
2002/11/2,20:10:00,19.7,0,51.3,0,19.4,0,18.9,0,,0,2002/11/6 12:30,10.6,0
2002/11/2,20:20:00,19.6,0,50.8,0,19.4,0,18.9,0,,0,2002/11/6 13:00,10.8,0
2002/11/2,20:30:00,19.6,0,50.6,0,19.3,0,18.8,0,,0,2002/11/6 13:30,10.9,0
2002/11/2,20:40:00,19.6,0,50.7,0,19.3,0,18.8,0,,0,2002/11/6 14:00,11.1,0
2002/11/2,20:50:00,19.6,0,50.8,0,19.3,0,18.8,0,,0,2002/11/6 14:30,11.3,0
2002/11/2,21:00:00,19.6,0,50.6,0,19.3,0,18.8,0,,0,2002/11/6 15:00,11.5,0
2002/11/2,21:10:00,19.5,0,50.5,0,19.3,0,18.8,0,,0,2002/11/6 15:30,11.6,0
2002/11/2,21:20:00,19.5,0,50.6,0,19.3,0,18.8,0,,0,2002/11/6 16:00,11.8,0
2002/11/2,21:30:00,19.5,0,50.8,0,19.3,0,18.8,0,,0,2002/11/6 16:30,12,0
2002/11/2,21:40:00,19.6,0,50.9,0,19.3,0,18.8,0,,0,2002/11/6 17:00,11.7,0
2002/11/2,21:50:00,19.6,0,51.1,0,19.3,0,18.8,0,,0,2002/11/6 17:30,11.8,0
2002/11/2,22:00:00,19.6,0,50.9,0,19.2,0,18.7,0,,0,2002/11/6 18:00,11.9,0
2002/11/2,22:10:00,19.6,0,52,0,19.3,0,18.8,0,,0,2002/11/6 18:30,12,0
2002/11/2,22:20:00,19.9,0,52.8,0,19.5,0,19,0,,0,2002/11/6 19:00,12.2,0
2002/11/2,22:30:00,20.2,0,53.1,0,19.7,0,19.2,0,,0,2002/11/6 19:30,14.7,0
2002/11/2,22:40:00,20.5,0,53.9,0,20,0,19.5,0,,0,2002/11/6 20:00,13.3,0
2002/11/2,22:50:00,20.8,0,54,0,20.2,0,19.7,0,,0,2002/11/6 20:30,13.3,0
2002/11/2,23:00:00,21.1,0,53.7,0,20.5,0,20,0,,0,2002/11/6 21:00,10.4,0
2002/11/2,23:10:00,21.1,0,52.7,0,20.7,0,20.2,0,,0,2002/11/6 21:30,10.5,0
2002/11/2,23:20:00,21.1,0,52,0,20.8,0,20.3,0,,0,2002/11/6 22:00,9.7,0
2002/11/2,23:30:00,21,0,51.7,0,20.9,0,20.4,0,,0,2002/11/6 22:30,9.5,0
2002/11/2,23:40:00,20.9,0,51.2,0,20.8,0,20.3,0,,0,2002/11/6 23:00,9.7,0
2002/11/2,23:50:00,20.7,0,50.7,0,20.7,0,20.2,0,,0,2002/11/6 23:30,9.9,0
2002/11/3,0:00:00,20.6,0,50.3,0,20.6,0,20.1,0,,0,2002/11/7 0:00,10.2,0
2002/11/3,0:10:00,20.4,0,49.9,0,20.5,0,20,0,,0,2002/11/7 0:30,10.4,0
2002/11/3,0:20:00,20.3,0,49.7,0,20.5,0,20,0,,0,2002/11/7 1:00,10.6,0
2002/11/3,0:30:00,20.2,0,49.3,0,20.4,0,19.9,0,,0,2002/11/7 1:30,10.8,0
2002/11/3,0:40:00,20,0,49,0,20.3,0,19.8,0,,0,2002/11/7 2:00,11,0
2002/11/3,0:50:00,19.9,0,48.8,0,20.3,0,19.8,0,,0,2002/11/7 2:30,14.4,0
2002/11/3,1:00:00,19.9,0,48.6,0,20.3,0,19.8,0,,0,2002/11/7 3:00,14.5,0
2002/11/3,1:10:00,19.8,0,48.5,0,20.2,0,19.7,0,,0,2002/11/7 3:30,14.6,0
2002/11/3,1:20:00,19.7,0,48.3,0,20.2,0,19.7,0,,0,2002/11/7 4:00,14.7,0
2002/11/3,1:30:00,19.7,0,48.2,0,20.1,0,19.6,0,,0,2002/11/7 4:30,14.6,0
2002/11/3,1:40:00,19.6,0,48,0,20,0,19.5,0,,0,2002/11/7 5:00,14.8,0
2002/11/3,1:50:00,19.5,0,47.9,0,20,0,19.5,0,,0,2002/11/7 5:30,14.9,0
2002/11/3,2:00:00,19.5,0,47.7,0,19.9,0,19.4,0,,0,2002/11/7 6:00,15.3,0
2002/11/3,2:10:00,19.4,0,47.5,0,19.9,0,19.4,0,,0,2002/11/7 6:30,15.2,0
2002/11/3,2:20:00,19.4,0,47.3,0,19.9,0,19.4,0,,0,2002/11/7 7:00,10.3,0
2002/11/3,2:30:00,19.3,0,47.2,0,19.8,0,19.3,0,,0,2002/11/7 7:30,10.4,0
2002/11/3,2:40:00,19.3,0,46.9,0,19.8,0,19.3,0,,0,2002/11/7 8:00,10.6,0
2002/11/3,2:50:00,19.2,0,46.8,0,19.8,0,19.3,0,,0,2002/11/7 8:30,9.7,0
2002/11/3,3:00:00,19.2,0,46.6,0,19.8,0,19.3,0,,0,2002/11/7 9:00,9.9,0
2002/11/3,3:10:00,19.1,0,46.6,0,19.7,0,19.2,0,,0,2002/11/7 9:30,10.5,0
2002/11/3,3:20:00,19.1,0,46.5,0,19.7,0,19.2,0,,0,2002/11/7 10:00,10.8,0
2002/11/3,3:30:00,19,0,46.4,0,19.6,0,19.1,0,,0,2002/11/7 10:30,11,0
2002/11/3,3:40:00,19,0,46.3,0,19.5,0,19,0,,0,2002/11/7 11:00,11.2,0
2002/11/3,3:50:00,18.9,0,46.2,0,19.5,0,19,0,,0,2002/11/7 11:30,11.4,0
2002/11/3,4:00:00,18.9,0,46.1,0,19.5,0,19,0,,0,2002/11/7 12:00,12.8,0
2002/11/3,4:10:00,18.8,0,46,0,19.5,0,19,0,,0,2002/11/7 12:30,9.6,0
2002/11/3,4:20:00,18.8,0,45.9,0,19.5,0,19,0,,0,2002/11/7 13:00,9.8,0
2002/11/3,4:30:00,18.8,0,45.8,0,19.5,0,19,0,,0,2002/11/7 13:30,10,0
2002/11/3,4:40:00,18.7,0,45.8,0,19.5,0,19,0,,0,2002/11/7 14:00,11.5,0
2002/11/3,4:50:00,18.7,0,45.9,0,19.4,0,18.9,0,,0,2002/11/7 14:30,11.6,0
2002/11/3,5:00:00,18.7,0,45.9,0,19.4,0,18.9,0,,0,2002/11/7 15:00,11.8,0
2002/11/3,5:10:00,18.6,0,45.9,0,19.4,0,18.9,0,,0,2002/11/7 15:30,12,0
2002/11/3,5:20:00,18.6,0,46,0,19.4,0,18.9,0,,0,2002/11/7 16:00,13.4,0
2002/11/3,5:30:00,18.6,0,46,0,19.3,0,18.8,0,,0,2002/11/7 16:30,13.4,0
2002/11/3,5:40:00,18.5,0,46,0,19.3,0,18.8,0,,0,2002/11/7 17:00,11.1,0
2002/11/3,5:50:00,18.5,0,45.9,0,19.3,0,18.8,0,,0,2002/11/7 17:30,11.3,0
2002/11/3,6:00:00,18.4,0,45.9,0,19.2,0,18.7,0,,0,2002/11/7 18:00,11.4,0
2002/11/3,6:10:00,18.4,0,45.8,0,19.2,0,18.7,0,,0,2002/11/7 18:30,11.5,0
2002/11/3,6:20:00,18.4,0,45.8,0,19.2,0,18.7,0,,0,2002/11/7 19:00,11.5,0
2002/11/3,6:30:00,18.3,0,45.7,0,19.2,0,18.7,0,,0,2002/11/7 19:30,11.6,0
2002/11/3,6:40:00,18.3,0,45.5,0,19.1,0,18.6,0,,0,2002/11/7 20:00,11.4,0
2002/11/3,6:50:00,18.3,0,45.5,0,19.1,0,18.6,0,,0,2002/11/7 20:30,10.2,0
2002/11/3,7:00:00,18.3,0,45.5,0,19.1,0,18.6,0,,0,2002/11/7 21:00,10.4,0
2002/11/3,7:10:00,18.6,0,45.2,0,19.1,0,18.6,0,,0,2002/11/7 21:30,12.1,0